| time (UTC) | temp C | wind direction | speed KPH | gust KPH | rain 1hr cm | rain 24hr cm | rain mn cm | humidity % | barometer mb |
| 20260507130329 | 11 | 270 | 0.0 | 0.0 | 0.00 | 4.11 | 1.30 | 85 | 961.1 |
| 20260507123328 | 11 | 270 | 1.6 | 3.2 | 0.00 | 4.27 | 1.30 | 87 | 961.2 |
| 20260507120331 | 11 | 27 | 1.6 | 3.2 | 0.00 | 4.42 | 1.30 | 89 | 961.0 |
| 20260507113330 | 10 | 22 | 0.0 | 0.0 | 0.00 | 4.42 | 1.30 | 93 | 961.1 |
| 20260507103330 | 10 | 263 | 3.2 | 8.0 | 0.00 | 4.42 | 1.30 | 88 | 960.9 |
| 20260507100329 | 10 | 270 | 1.6 | 3.2 | 0.00 | 4.42 | 1.30 | 93 | 960.8 |
| 20260507093330 | 8 | 315 | 93.3 | 93.3 | 0.00 | 4.42 | 1.30 | 10 | 960.7 |
| 20260507090329 | 8 | 0 | 0.0 | 0.0 | 0.00 | 4.42 | 1.30 | 99 | 960.3 |
| 20260507080329 | 8 | 270 | 1.6 | 1.6 | 0.00 | 4.42 | 1.30 | 99 | 960.2 |
| 20260507063330 | 7 | 248 | 93.3 | 93.3 | 0.00 | 4.42 | 1.30 | 10 | 959.4 |
| 20260507060331 | 7 | 248 | 93.3 | 93.3 | 0.03 | 4.42 | 1.30 | 10 | 959.3 |
| 20260507053329 | 7 | 248 | 0.0 | 0.0 | 0.05 | 4.42 | 1.30 | 99 | 959.1 |
| 20260507050328 | 7 | 248 | 0.0 | 0.0 | 0.13 | 4.37 | 1.27 | 99 | 958.8 |
| 20260507043328 | 7 | 225 | 0.0 | 0.0 | 0.15 | 4.34 | 1.22 | 99 | 958.5 |
| 20260507040330 | 7 | 248 | 4.8 | 9.7 | 0.20 | 4.27 | 1.14 | 99 | 958.3 |
| 20260507033329 | 8 | 312 | 1.6 | 8.0 | 0.28 | 4.19 | 1.09 | 99 | 957.7 |
| 20260507030329 | 8 | 267 | 4.8 | 11.3 | 0.18 | 4.04 | 0.94 | 99 | 957.5 |
| 20260507023329 | 8 | 289 | 1.6 | 3.2 | 0.15 | 3.94 | 0.81 | 99 | 957.4 |
| 20260507020331 | 8 | 277 | 3.2 | 4.8 | 0.20 | 3.86 | 0.76 | 99 | 957.2 |
| 20260507013328 | 8 | 256 | 0.0 | 1.6 | 0.15 | 3.78 | 0.66 | 99 | 957.0 |
| 20260507010330 | 8 | 315 | 93.3 | 93.3 | 0.36 | 3.66 | 0.53 | 10 | 956.9 |
| 20260507003330 | 8 | 292 | 4.8 | 9.7 | 0.33 | 3.63 | 0.51 | 99 | 956.6 |
| 20260507000329 | 8 | 248 | 93.3 | 93.3 | 0.03 | 3.30 | 0.18 | 10 | 956.6 |
| 20260506233330 | 8 | 248 | 93.3 | 93.3 | 0.05 | 3.30 | 0.18 | 10 | 956.5 |
| 20260506230330 | 8 | 248 | 3.2 | 4.8 | 0.13 | 3.28 | 0.15 | 99 | 956.4 |
| 20260506223328 | 8 | 278 | 1.6 | 3.2 | 0.00 | 3.25 | 0.13 | 99 | 956.4 |
| 20260506220330 | 8 | 242 | 1.6 | 3.2 | 0.00 | 3.15 | 0.03 | 99 | 956.3 |
| 20260506213329 | 8 | 262 | 1.6 | 3.2 | 0.43 | 3.02 | 3.02 | 99 | 956.3 |
| 20260506210329 | 8 | 315 | 0.0 | 0.0 | 0.46 | 2.84 | 2.84 | 99 | 956.2 |
| 20260506203330 | 9 | 328 | 3.2 | 4.8 | 0.53 | 2.62 | 2.62 | 99 | 956.3 |
| 20260506200330 | 9 | 309 | 3.2 | 9.7 | 0.64 | 2.39 | 2.39 | 99 | 956.0 |
| 20260506193329 | 9 | 276 | 3.2 | 4.8 | 0.53 | 2.06 | 2.06 | 99 | 955.7 |
| 20260506190329 | 9 | 248 | 4.8 | 9.7 | 0.38 | 1.78 | 1.78 | 99 | 955.3 |
| 20260506183328 | 10 | 270 | 3.2 | 4.8 | 0.23 | 1.52 | 1.52 | 99 | 954.6 |
| 20260506180329 | 10 | 252 | 1.6 | 4.8 | 0.18 | 1.37 | 1.37 | 99 | 954.3 |
| 20260506173329 | 10 | 270 | 0.0 | 0.0 | 0.18 | 1.30 | 1.30 | 99 | 954.1 |
| 20260506170331 | 10 | 270 | 0.0 | 0.0 | 0.13 | 1.22 | 1.19 | 99 | 953.9 |
| 20260506163330 | 10 | 202 | 0.0 | 0.0 | 0.10 | 1.17 | 1.12 | 99 | 954.1 |
| 20260506160331 | 10 | 267 | 1.6 | 3.2 | 0.10 | 1.37 | 1.09 | 98 | 954.0 |
| 20260506153330 | 10 | 248 | 3.2 | 4.8 | 0.15 | 1.35 | 1.02 | 98 | 954.0 |
| 20260506150329 | 11 | 248 | 1.6 | 3.2 | 0.48 | 1.32 | 0.99 | 99 | 953.8 |
| 20260506143330 | 11 | 338 | 1.6 | 8.0 | 0.56 | 1.19 | 0.86 | 99 | 953.7 |
| 20260506140329 | 11 | 225 | 0.0 | 0.0 | 0.20 | 0.84 | 0.51 | 98 | 953.3 |
| 20260506133330 | 12 | 0 | 0.0 | 0.0 | 0.15 | 0.64 | 0.30 | 94 | 953.2 |